[[{"header":{"parameterUnit":"m.s-1","parameterCategory":1,"la1":30.2991,"la2":30.254,"lo1":-89.0895,"lo2":-89.0444,"dy":0.0017,"dx":0.0017,"nx":28,"ny":28,"refTime":"2024-08-22T03:00:00:Z","depth":0,"parameterNumber":2,"parameterNumberName":"U-component_of_WINDS"},"data":[0,0,0,0,0,0,0,0,0,0,0,0,0,0,0,0,0,0,0,0,0,0,0,0,0,0,0,0,0,0,0,0,0,0,0,0,0,0,0,0,0,0,0,0,0,0,0,0,0,0,0,0,0,0,0,0,0,0,-4.5029,-4.5029,0,-4.5021,-4.5021,-4.502,-4.4866,-4.4862,-4.4858,-4.4854,-4.4845,-4.4849,-4.4852,0,0,0,0,0,0,0,0,0,0,0,0,0,-4.4911,-4.4914,-4.5029,-4.5029,-4.5029,-4.5021,-4.5021,-4.502,-4.4866,-4.4862,-4.4857,-4.4852,-4.4844,-4.4848,-4.4852,0,0,0,0,0,0,0,0,0,0,0,0,0,-4.4939,-4.4915,-4.5029,-4.4951,-4.4944,-4.5021,-4.5021,-4.502,-4.4867,-4.4861,-4.4855,-4.485,-4.4843,-4.4848,-4.4853,-4.5004,0,0,-4.4869,-4.4871,0,0,0,0,0,0,0,0,-4.4937,-4.4943,-4.4963,-4.4957,-4.4949,-4.4938,-4.4975,-4.5015,-4.4869,-4.4897,-4.4854,-4.4847,-4.4881,-4.4883,-4.4894,-4.5003,-4.5003,-4.4869,-4.4872,-4.4874,-4.4876,0,0,0,0,0,0,0,-4.4936,-4.4943,-4.5026,-4.4963,-4.4955,-4.4916,-4.4914,-4.4982,-4.4922,-4.4894,-4.4882,-4.4884,-4.4876,-4.4889,-4.4893,-4.5003,-4.4869,-4.4874,-4.4877,-4.4879,-4.5233,-4.5239,0,0,0,0,0,0,-4.4945,-4.4942,-4.5026,-4.5026,-4.4928,-4.4923,-4.492,-4.4948,-4.4921,-4.4911,-4.4889,-4.4876,-4.4883,-4.4887,-4.4892,-4.5065,-4.4874,-4.4879,-4.4882,-4.5227,-4.5234,-4.5241,0,0,0,0,0,0,-4.4943,-4.4954,-4.5026,-4.4981,-4.4987,-4.4932,-4.4964,-4.4951,-4.4964,-4.4917,-4.4905,-4.4913,-4.4879,-4.4884,-4.4976,-4.5062,-4.4882,-4.4886,-4.5219,-4.5229,-4.5238,-4.5414,0,0,0,0,0,0,-4.494,-4.4954,-4.5011,-4.4983,-4.499,-4.5112,-4.4969,-4.4955,-4.4973,-4.4957,-4.4937,-4.4928,-4.4875,-4.497,-4.4982,-4.5066,-4.489,-4.5211,-4.5224,-4.5235,-4.54,-4.5428,-4.5452,0,0,0,0,0,-4.4936,-4.5061,-4.5015,-4.5026,-4.506,-4.5117,-4.5121,-4.5057,-4.4981,-4.5037,-4.5007,-4.4929,-4.5052,-4.498,-4.4993,-4.508,-4.5206,-4.522,-4.5234,-4.5388,-4.5422,-4.5451,0,0,0,0,0,0,-4.5101,-4.5056,-4.5004,-4.5124,-4.5126,-4.5091,-4.516,-4.5096,-4.5119,-4.5103,-4.5022,-4.5019,-4.5123,-4.5111,-4.5032,-4.5224,-4.5115,-4.5132,-4.5228,-4.526,-4.5286,-4.5286,-4.4895,0,0,0,0,0,-4.5151,-4.5201,-4.5159,-4.5269,-4.5273,-4.5217,-4.5239,-4.519,-4.5188,-4.5188,-4.5165,-4.5166,-4.5204,-4.5232,-4.5265,-4.5398,-4.539,-4.5464,-4.549,-4.5511,-4.5527,-4.5595,-4.5627,-4.5288,-4.5288,-4.5287,0,0,-4.5255,-4.5237,-4.5274,-4.5302,-4.5297,-4.535,-4.5219,-4.5281,-4.5319,-4.5197,-4.5282,-4.5266,-4.5262,-4.5375,-4.5423,-4.5368,-4.5619,-4.553,-4.5547,-4.5551,-4.5613,-4.5645,-4.5674,-4.5297,-4.5296,-4.5294,0,0,-4.5471,-4.5464,-4.5553,-4.5551,-4.5546,-4.5508,-4.553,-4.5505,-4.5489,-4.5573,-4.5482,-4.5527,-4.5596,-4.5596,-4.5606,-4.5822,-4.5751,-4.5835,-4.5971,-4.6038,-4.6064,-4.6088,-4.6164,-4.6192,-4.5851,-4.5851,-4.5852,0,-4.5601,-4.5678,-4.5607,-4.5675,-4.569,-4.5582,-4.5671,-4.5673,-4.5679,-4.5691,-4.5629,-4.5712,-4.5702,-4.5812,-4.5865,-4.5877,-4.5898,-4.5836,-4.6066,-4.6089,-4.611,-4.6181,-4.621,-4.5862,-4.586,-4.5859,-4.5858,0,-4.5837,-4.5892,-4.5965,-4.5973,-4.5995,-4.6074,-4.6015,-4.6046,-4.5995,-4.5964,-4.605,-4.6034,-4.6061,-4.6084,-4.6035,-4.6188,-4.6154,-4.6081,-4.5969,-4.6153,-4.6219,-4.6246,-4.5876,-4.5872,-4.5869,-4.5867,0,0,-4.6157,-4.6124,-4.6152,-4.6153,-4.6139,-4.618,-4.6254,-4.628,-4.6308,-4.6316,-4.6375,-4.6435,-4.6367,-4.6378,-4.6327,-4.6387,-4.6557,-4.6305,-4.6304,-4.6352,-4.6724,-4.6778,-4.6811,-4.6511,-4.6515,-4.6519,-4.6724,0,-4.6364,-4.6487,-4.6425,-4.6556,-4.6605,-4.6503,-4.6567,-4.6565,-4.6538,-4.6575,-4.6544,-4.6588,-4.6495,-4.6501,-4.6555,-4.6525,-4.6631,-4.651,-4.6564,-4.6567,-4.6566,-4.6845,-4.6903,-4.7097,-4.6749,-4.6753,-4.6756,0,-4.6623,-4.6641,-4.6777,-4.6752,-4.677,-4.6829,-4.6847,-4.6884,-4.688,-4.6856,-4.6868,-4.6804,-4.6873,-4.6765,-4.6859,-4.6778,-4.6797,-4.6786,-4.6791,-4.6793,-4.6672,-4.6853,-4.7157,-4.7186,-4.6796,-4.6793,-4.679,0,-4.684,-4.6899,-4.6986,-4.6991,-4.6966,-4.7009,-4.7,-4.699,-4.701,-4.7026,-4.7038,-4.7063,-4.7076,-4.7097,-4.7041,-4.6967,-4.7143,-4.7029,-4.7124,-4.7126,-4.7165,-4.7163,-4.7474,-4.718,-4.7179,-4.7179,-4.7178,0,-4.7077,-4.7164,-4.7083,-4.7138,-4.7231,-4.716,-4.7254,-4.7235,-4.7226,-4.7275,-4.7189,-4.7236,-4.7159,-4.7199,-4.7156,-4.724,-4.7247,-4.7229,-4.7216,-4.7236,-4.7238,-4.7246,-4.7231,-4.7186,-4.7185,-4.7183,-4.7182,0,-4.7336,-4.7285,-4.7374,-4.7343,-4.7337,-4.7407,-4.738,-4.7428,-4.7395,-4.7457,-4.7468,-4.7416,-4.7458,-4.7404,-4.7441,-4.7412,-4.7527,-4.7495,-4.7528,-4.7518,-4.7616,-4.7607,-4.7942,-4.7982,-4.7663,-4.7667,-4.7669,0,-4.749,-4.7554,-4.7529,-4.7554,-4.7551,-4.7594,-4.7613,-4.7545,-4.7568,-4.7568,-4.7617,-4.7651,-4.7675,-4.7747,-4.7713,-4.7741,-4.7708,-4.7823,-4.7711,-4.7729,-4.7708,-4.7704,-4.771,-4.7846,-4.785,-4.7853,-4.7855,0,-4.7768,-4.774,-4.777,-4.7793,-4.7818,-4.7833,-4.7841,-4.7867,-4.7795,-4.7826,-4.7868,-4.7887,-4.7924,-4.7959,-4.7978,-4.7969,-4.7901,-4.7891,-4.7914,-4.7934,-4.7951,-4.7942,-4.7589,-4.7883,-4.7881,-4.7879,-4.7877,-4.7876,-4.7977,-4.8029,-4.8019,-4.8056,-4.8055,-4.8064,-4.8108,-4.808,-4.8113,-4.8138,-4.8096,-4.8148,-4.8142,-4.8159,-4.8158,-4.8198,-4.8148,-4.8182,-4.819,-4.8199,-4.8214,-4.7946,-4.8201,-4.82,-4.82,-4.8199,-4.8198,0,-4.825,-4.8238,-4.8273,-4.8286,-4.8315,-4.8249,-4.8254,-4.8283,-4.833,-4.8329,-4.8354,-4.8402,-4.8436,-4.8404,-4.8432,-4.847,-4.8439,-4.8479,-4.8475,-4.8474,-4.8257,-4.8234,-4.8503,-4.8503,-4.8503,-4.8503,-4.8503,-4.8503,-4.8395,-4.8478,-4.8449,-4.853,-4.8518,-4.8568,-4.8576,-4.8584,-4.8583,-4.864,-4.8668,-4.8647,-4.8634,-4.8659,-4.8688,-4.8677,-4.8691,-4.8742,-4.8721,-4.8519,-4.8489,-4.8461,-4.8438,-4.8746,-4.8746,-4.8934,-4.8935,-4.8937]},{"header":{"parameterUnit":"m.s-1","parameterCategory":1,"la1":30.2991,"la2":30.254,"lo1":-89.0895,"lo2":-89.0444,"dy":0.0017,"dx":0.0017,"nx":28,"ny":28,"refTime":"2024-08-22T03:00:00:Z","depth":0,"parameterNumber":3,"parameterNumberName":"V-component_of_WINDS"},"data":[0,0,0,0,0,0,0,0,0,0,0,0,0,0,0,0,0,0,0,0,0,0,0,0,0,0,0,0,0,0,0,0,0,0,0,0,0,0,0,0,0,0,0,0,0,0,0,0,0,0,0,0,0,0,0,0,0,0,-0.5143,-0.5144,0,-0.5226,-0.5227,-0.5228,-0.5282,-0.5283,-0.5283,-0.5283,-0.5366,-0.5368,-0.537,0,0,0,0,0,0,0,0,0,0,0,0,0,-0.5029,-0.5031,-0.5143,-0.5144,-0.5145,-0.5226,-0.5227,-0.5228,-0.5282,-0.5283,-0.5283,-0.5283,-0.5365,-0.5367,-0.537,0,0,0,0,0,0,0,0,0,0,0,0,0,-0.5092,-0.5031,-0.5143,-0.5182,-0.5186,-0.5226,-0.5227,-0.5228,-0.5282,-0.5283,-0.5283,-0.5284,-0.5365,-0.5367,-0.537,-0.5376,0,0,-0.5379,-0.538,0,0,0,0,0,0,0,0,-0.5088,-0.5096,-0.5175,-0.518,-0.5184,-0.5244,-0.5217,-0.5278,-0.5282,-0.5246,-0.5283,-0.5284,-0.5325,-0.5331,-0.5345,-0.538,-0.5384,-0.5379,-0.538,-0.5382,-0.5382,0,0,0,0,0,0,0,-0.5083,-0.5092,-0.5176,-0.5176,-0.5182,-0.5194,-0.5204,-0.5229,-0.5281,-0.5249,-0.5253,-0.5262,-0.5327,-0.5342,-0.5348,-0.5385,-0.5379,-0.5381,-0.5383,-0.5384,-0.5427,-0.5427,0,0,0,0,0,0,-0.5073,-0.5088,-0.5173,-0.5179,-0.5137,-0.5196,-0.5207,-0.5225,-0.5281,-0.529,-0.5262,-0.5264,-0.5337,-0.5344,-0.5351,-0.5361,-0.5382,-0.5384,-0.5386,-0.5428,-0.5427,-0.5427,0,0,0,0,0,0,-0.5071,-0.508,-0.517,-0.5135,-0.5147,-0.5197,-0.5217,-0.5226,-0.5241,-0.5291,-0.53,-0.5268,-0.5338,-0.5347,-0.5369,-0.5365,-0.5386,-0.5388,-0.5428,-0.5428,-0.5427,-0.5383,0,0,0,0,0,0,-0.5067,-0.5079,-0.5083,-0.5134,-0.5149,-0.5188,-0.5217,-0.5227,-0.5246,-0.525,-0.5299,-0.5307,-0.5339,-0.5365,-0.5372,-0.5369,-0.539,-0.5429,-0.5428,-0.5427,-0.5385,-0.538,-0.5377,0,0,0,0,0,-0.5063,-0.5068,-0.5083,-0.5093,-0.5155,-0.5188,-0.5196,-0.5233,-0.5245,-0.5249,-0.5281,-0.5306,-0.5364,-0.5367,-0.5375,-0.5373,-0.543,-0.5428,-0.5427,-0.5387,-0.5381,-0.5377,0,0,0,0,0,0,-0.5015,-0.5075,-0.5093,-0.5115,-0.5146,-0.5197,-0.5204,-0.5227,-0.5255,-0.5258,-0.5302,-0.5312,-0.533,-0.5354,-0.5356,-0.5381,-0.5399,-0.54,-0.5366,-0.5361,-0.5357,-0.5351,-0.5393,0,0,0,0,0,-0.5006,-0.5029,-0.508,-0.5094,-0.5109,-0.5153,-0.5169,-0.5195,-0.5229,-0.5242,-0.5275,-0.5306,-0.5331,-0.5347,-0.5373,-0.5388,-0.5398,-0.539,-0.5386,-0.5382,-0.5383,-0.5391,-0.5387,-0.5423,-0.5423,-0.5423,0,0,-0.499,-0.5026,-0.5038,-0.5085,-0.5113,-0.5134,-0.5164,-0.5186,-0.5202,-0.5245,-0.5269,-0.5294,-0.5331,-0.5349,-0.5359,-0.5369,-0.5375,-0.5381,-0.5378,-0.538,-0.5389,-0.5386,-0.5383,-0.5422,-0.5422,-0.5422,0,0,-0.4971,-0.5001,-0.5015,-0.5041,-0.5082,-0.5111,-0.5114,-0.5161,-0.518,-0.5204,-0.5236,-0.5255,-0.5298,-0.5323,-0.5341,-0.5328,-0.5352,-0.5335,-0.5315,-0.5322,-0.5319,-0.5317,-0.5312,-0.5309,-0.5335,-0.5335,-0.5334,0,-0.4946,-0.4981,-0.5019,-0.5039,-0.5058,-0.5098,-0.5112,-0.5135,-0.5181,-0.5193,-0.5204,-0.5258,-0.5286,-0.531,-0.5306,-0.532,-0.5324,-0.5331,-0.5316,-0.5314,-0.5313,-0.5309,-0.5307,-0.5332,-0.5333,-0.5333,-0.5333,0,-0.4947,-0.497,-0.4976,-0.502,-0.504,-0.5057,-0.5097,-0.5112,-0.5134,-0.5162,-0.5184,-0.5219,-0.5252,-0.5259,-0.5282,-0.5286,-0.5291,-0.5308,-0.5328,-0.5307,-0.5303,-0.5302,-0.5329,-0.533,-0.533,-0.5331,0,0,-0.4903,-0.4966,-0.4968,-0.4988,-0.5034,-0.5052,-0.5069,-0.5101,-0.5113,-0.5143,-0.5158,-0.5191,-0.5207,-0.5228,-0.5253,-0.5259,-0.5246,-0.5276,-0.5278,-0.5269,-0.5251,-0.5238,-0.5236,-0.5261,-0.5261,-0.5261,-0.5248,0,-0.4891,-0.4926,-0.496,-0.4981,-0.5002,-0.5038,-0.5053,-0.5082,-0.5107,-0.5127,-0.5154,-0.5177,-0.5197,-0.5209,-0.5217,-0.5246,-0.5243,-0.5247,-0.5275,-0.5275,-0.5266,-0.5234,-0.5221,-0.5208,-0.5247,-0.5247,-0.5247,0,-0.4883,-0.4911,-0.4935,-0.4977,-0.4987,-0.5,-0.5032,-0.5051,-0.5083,-0.5101,-0.5122,-0.5149,-0.5167,-0.5183,-0.5208,-0.521,-0.5222,-0.5238,-0.5238,-0.5243,-0.5261,-0.5239,-0.5204,-0.5202,-0.5245,-0.5245,-0.5245,0,-0.4849,-0.4892,-0.4912,-0.4927,-0.4977,-0.4985,-0.5006,-0.5039,-0.5056,-0.5082,-0.5093,-0.5121,-0.5137,-0.5157,-0.519,-0.5198,-0.5211,-0.523,-0.5225,-0.5224,-0.5228,-0.5227,-0.5195,-0.5234,-0.5234,-0.5234,-0.5234,0,-0.4833,-0.4846,-0.4897,-0.4909,-0.4924,-0.4961,-0.4974,-0.4998,-0.5027,-0.5043,-0.5075,-0.5089,-0.5131,-0.515,-0.5175,-0.5191,-0.5198,-0.5212,-0.5219,-0.521,-0.5208,-0.522,-0.5222,-0.5234,-0.5234,-0.5234,-0.5234,0,-0.4798,-0.4833,-0.4856,-0.4901,-0.4912,-0.4921,-0.4959,-0.4971,-0.4996,-0.5016,-0.5023,-0.5063,-0.5086,-0.512,-0.5154,-0.5171,-0.5183,-0.5194,-0.5173,-0.5177,-0.5171,-0.5171,-0.5146,-0.5145,-0.5183,-0.5183,-0.5182,0,-0.4787,-0.4798,-0.4843,-0.4856,-0.4876,-0.4897,-0.4914,-0.495,-0.4965,-0.5002,-0.5009,-0.5035,-0.5058,-0.5093,-0.5125,-0.515,-0.5162,-0.5151,-0.5166,-0.5156,-0.5162,-0.5161,-0.5162,-0.5148,-0.5148,-0.5147,-0.5147,0,-0.4762,-0.4778,-0.4802,-0.483,-0.4849,-0.4873,-0.4898,-0.4907,-0.4948,-0.4964,-0.4989,-0.5006,-0.504,-0.5065,-0.5094,-0.5114,-0.5137,-0.5141,-0.5142,-0.5133,-0.5121,-0.5128,-0.5164,-0.5142,-0.5143,-0.5143,-0.5143,-0.5143,-0.4739,-0.475,-0.4783,-0.4807,-0.483,-0.4852,-0.4865,-0.4892,-0.4913,-0.4944,-0.4963,-0.4986,-0.5016,-0.5057,-0.5076,-0.5094,-0.5104,-0.5104,-0.5104,-0.5104,-0.5101,-0.5117,-0.5099,-0.5099,-0.5099,-0.51,-0.51,0,-0.4717,-0.4739,-0.4761,-0.4795,-0.4813,-0.4832,-0.4861,-0.4875,-0.4895,-0.4921,-0.4942,-0.4969,-0.4993,-0.5025,-0.505,-0.5058,-0.5069,-0.5064,-0.5064,-0.5068,-0.5091,-0.5088,-0.5054,-0.5054,-0.5054,-0.5054,-0.5054,-0.5054,-0.4707,-0.4726,-0.4745,-0.4774,-0.4797,-0.482,-0.4834,-0.4854,-0.4875,-0.4904,-0.4924,-0.4944,-0.4972,-0.5,-0.5022,-0.503,-0.5038,-0.503,-0.5042,-0.5063,-0.5067,-0.5071,-0.5068,-0.5031,-0.5031,-0.5018,-0.5017,-0.5017]}]]